Weather History for KTQE - May, 2015

Change the Weather History Date:

Sunday, May 17, 2015

  Actual Average Record
Temperature  
Mean Temperature 68 °F -  
Max Temperature 77 °F 77 °F 95 °F (2012)
Min Temperature 55 °F 52 °F 34 °F (2014)
Cooling Degree Days 3    
Growing Degree Days 18 (Base 50)    
Moisture  
Dew Point 59 °F    
Average Humidity 78    
Maximum Humidity 97    
Minimum Humidity 45    
Precipitation  
Precipitation 0.05 in - - ()
Sea Level Pressure  
Sea Level Pressure 29.66 in    
Wind  
Wind Speed 14 mph (SSW)    
Max Wind Speed 28 mph    
Max Gust Speed 36 mph    
Visibility 10 miles    
Events Rain    
Averages and records for this station are not official NWS values.
T = Trace of Precipitation, MM = Missing Value Source: NWS Daily Summary

Daily Weather History Graph

Daily Weather History Graph

Search for Another Location

Airport or City:

Trip Planner

Search our weather history database for the weather conditions in past years. The results will help you decide how hot, cold, wet, or windy it might be!

Date:

Astronomy

May. 17, 2015 Rise Set
Actual Time 6:03 AM CDT 8:39 PM CDT
Civil Twilight 5:31 AM CDT 9:11 PM CDT
Nautical Twilight 4:51 AM CDT 9:51 PM CDT
Astronomical Twilight 4:06 AM CDT 10:37 PM CDT
Moon 5:56 AM CDT (5/17) 8:14 PM CDT (5/17)
Length of Visible Light 15h 40m
Length of Day
14h 36m
Waning Crescent, 0% of the Moon is Illuminated
May 17
Waning Crescent
May 17
New
May 25
First Quarter
Jun 2
Full
Jun 9
Last Quarter

Hourly Weather History & Observations

Time (CDT) Temp. Dew Point Humidity Pressure Visibility Wind Dir Wind Speed Gust Speed Precip Events Conditions
12:54 AM 64.0 °F 62.1 °F 93% 29.62 in 10.0 mi SE 17.3 mph - 0.01 in Rain Light Rain
1:18 AM 64.0 °F 62.1 °F 93% 29.65 in 10.0 mi South 11.5 mph - 0.00 in Rain Light Rain
1:29 AM 64.0 °F 62.1 °F 93% 29.65 in 10.0 mi South 10.4 mph - 0.00 in Rain Light Rain
1:40 AM 64.0 °F 62.1 °F 93% 29.63 in 10.0 mi SSE 12.7 mph - 0.00 in   Mostly Cloudy
1:54 AM 64.0 °F 62.1 °F 93% 29.62 in 10.0 mi South 12.7 mph - 0.00 in   Mostly Cloudy
2:11 AM 64.0 °F 61.0 °F 90% 29.63 in 10.0 mi SSW 9.2 mph - N/A   Scattered Clouds
2:54 AM 63.0 °F 61.0 °F 93% 29.57 in 10.0 mi SE 6.9 mph - N/A   Scattered Clouds
3:54 AM 63.0 °F 60.1 °F 90% 29.59 in 10.0 mi SSW 11.5 mph - N/A   Mostly Cloudy
4:54 AM 61.0 °F 60.1 °F 97% 29.57 in 10.0 mi SSE 5.8 mph - N/A   Mostly Cloudy
5:54 AM 61.0 °F 57.9 °F 90% 29.57 in 10.0 mi South 8.1 mph - N/A   Scattered Clouds
6:05 AM 61.0 °F 59.0 °F 93% 29.60 in 10.0 mi South 9.2 mph - N/A   Mostly Cloudy
6:27 AM 62.1 °F 59.0 °F 90% 29.61 in 10.0 mi South 11.5 mph - N/A   Overcast
6:54 AM 63.0 °F 59.0 °F 87% 29.59 in 10.0 mi South 12.7 mph - N/A   Overcast
7:54 AM 63.0 °F 60.1 °F 90% 29.61 in 6.0 mi South 12.7 mph - N/A   Overcast
8:20 AM 62.1 °F 61.0 °F 96% 29.64 in 3.0 mi South 8.1 mph - 0.01 in Rain Light Rain
8:54 AM 63.0 °F 61.0 °F 93% 29.61 in 10.0 mi South 15.0 mph - 0.01 in Rain Light Rain
9:01 AM 64.0 °F 61.0 °F 90% 29.63 in 10.0 mi South 16.1 mph - 0.00 in   Overcast
9:35 AM 66.0 °F 62.1 °F 87% 29.62 in 10.0 mi South 17.3 mph - 0.00 in   Overcast
9:54 AM 68.0 °F 62.1 °F 81% 29.59 in 10.0 mi SSW 18.4 mph - 0.00 in   Overcast
10:23 AM 69.1 °F 63.0 °F 81% 29.62 in 10.0 mi South 18.4 mph - N/A   Overcast
10:30 AM 69.1 °F 62.1 °F 78% 29.62 in 10.0 mi SSW 19.6 mph - N/A   Overcast
10:54 AM 69.1 °F 62.1 °F 78% 29.60 in 10.0 mi SSW 17.3 mph - N/A   Mostly Cloudy
11:54 AM 71.1 °F 62.1 °F 73% 29.59 in 10.0 mi South 18.4 mph - 0.03 in   Clear
12:54 PM 73.0 °F 61.0 °F 66% 29.60 in 10.0 mi SSW 18.4 mph - N/A   Mostly Cloudy
1:54 PM 73.9 °F 60.1 °F 62% 29.62 in 10.0 mi WSW 24.2 mph 34.5 mph N/A   Mostly Cloudy
2:54 PM 75.0 °F 57.9 °F 55% 29.62 in 10.0 mi SW 21.9 mph - N/A   Mostly Cloudy
3:54 PM 77.0 °F 55.9 °F 48% 29.65 in 10.0 mi West 27.6 mph 35.7 mph N/A   Mostly Cloudy
4:54 PM 77.0 °F 54.0 °F 45% 29.69 in 10.0 mi West 27.6 mph 35.7 mph N/A   Partly Cloudy
5:54 PM 73.9 °F 53.1 °F 48% 29.75 in 10.0 mi West 23.0 mph 32.2 mph N/A   Partly Cloudy
6:54 PM 73.9 °F 53.1 °F 48% 29.78 in 10.0 mi West 18.4 mph - N/A   Clear
7:54 PM 72.0 °F 55.0 °F 55% 29.81 in 10.0 mi NW 13.8 mph - N/A   Clear
8:54 PM 66.9 °F 54.0 °F 63% 29.87 in 10.0 mi NW 16.1 mph - N/A   Clear
9:54 PM 62.1 °F 51.1 °F 67% 29.92 in 10.0 mi NW 18.4 mph 26.5 mph N/A   Clear
10:54 PM 59.0 °F 50.0 °F 72% 29.95 in 10.0 mi NNW 12.7 mph - N/A   Clear
11:54 PM 55.9 °F 46.9 °F 72% 29.98 in 10.0 mi NNW 21.9 mph 31.1 mph N/A   Clear